User: anonymous   Login
Location: Castiglione Fibocchi
(43.5333°N, 11.7667°E)
Time: 12:57:36
(UTC+00:00)
Language:

Cosmos 1953 Rocket - Orbit

View from above orbital plane
View from above orbital plane
View from above satellite
View from above satellite

Ground track
Ground track

The orbit data is extracted from the following two-line orbital elements,

1 19211U 88050B   20294.83278306 +.00000068 +00000-0 +54023-5 0  9992
2 19211 082.5245 139.7513 0023078 054.0149 316.6127 14.83081265747859
Epoch (UTC): 20 October 2020 19:59:12
Eccentricity: 0.0023078
inclination: 82.5245°
perigee height: 603 km
apogee height: 636 km
right ascension of ascending node: 139.7513°
argument of perigee: 54.0149°
revolutions per day: 14.83081265
mean anomaly at epoch: 316.6127°
orbit number at epoch: 74785

The dashed part of the orbit path shows where the satellite is in the earth's shadow,  

DLR